K4MRR Pensacola FL US current weather conditions

sailwx.info

Wind from 013 at 0 knots gusting 6

Air temperature 17.8° C
Dewpoint 10.4° C

Last reported at 2019-Nov-15 20:07 UTC.
Time now 2019-Nov-15 20:35 UTC

Location: N 30°20' W 087°23'.
View on Google Maps.

See reports from other nearby stations

  
Tides and Currents Weather Stations Pressure Air Temp Water Temp Dewpoint Dewpoint Depression Visibility Wind Speed Wind Dir Waves Ship Positions
date/time (UTC)wind fromknots sea level pressurealtimeterstation pressurevisibilityair tempwater tempwave heightnotes
2019-Nov-15 20:07 013 0 gusting 6 17.8
2019-Nov-15 19:52 012 0 gusting 10 17.8
2019-Nov-15 19:37 022 17.8
2019-Nov-15 19:22 332 1 gusting 7 17.2
2019-Nov-15 19:07 346 2 gusting 6 17.2
2019-Nov-15 18:52 326 5 gusting 7 17.2
2019-Nov-15 18:37 307 0 gusting 5 17.2
2019-Nov-15 18:22 252 2 gusting 6 16.7
2019-Nov-15 18:07 282 3 gusting 9 16.1
2019-Nov-15 17:52 342 0 gusting 8 15.6
2019-Nov-15 17:37 360 15.6
2019-Nov-15 17:22 022 0 gusting 4 15.6
2019-Nov-15 17:07 005 1 gusting 6 15.0
2019-Nov-15 16:52 005 14.4
2019-Nov-15 16:37 360 13.9
2019-Nov-15 16:22 360 1 gusting 4 13.3
2019-Nov-15 16:07 347 0 gusting 5 12.8
2019-Nov-15 15:52 329 12.2
2019-Nov-15 15:37 339 3 gusting 4 11.7
2019-Nov-15 15:22 254 11.7
2019-Nov-15 15:07 355 0 gusting 3 10.6
2019-Nov-15 14:52 360 9.4
2019-Nov-15 14:37 348 8.9
2019-Nov-15 14:22 312 1 gusting 2 8.9
2019-Nov-15 14:07 334 8.3
2019-Nov-15 13:52 344 8.3
2019-Nov-15 13:37 355 7.8
2019-Nov-15 13:22 348 7.8
2019-Nov-15 13:07 316 0 gusting 0 7.2
2019-Nov-15 12:52 348 7.2
2019-Nov-15 12:37 344 7.2
2019-Nov-15 12:22 346 6 gusting 6 6.7
2019-Nov-15 12:07 344 6.7
2019-Nov-15 11:52 281 7.2
2019-Nov-15 11:37 335 1 gusting 7 7.2
2019-Nov-15 11:22 019 7.2
2019-Nov-15 11:07 337 7.2
2019-Nov-15 10:52 329 7.8
2019-Nov-15 10:37 319 7.8
2019-Nov-15 10:22 347 7.8
2019-Nov-15 10:07 333 7.8
2019-Nov-15 09:52 338 7.2
2019-Nov-15 09:37 316 0 gusting 4 7.8
2019-Nov-15 09:22 310 7.8
2019-Nov-15 09:07 322 7.2
2019-Nov-15 08:52 360 7.2
2019-Nov-15 08:37 327 7.8
2019-Nov-15 08:22 355 7.8
2019-Nov-15 08:07 355 7.8
2019-Nov-15 07:52 349 7.8
2019-Nov-15 07:37 347 7.8
2019-Nov-15 07:22 343 0 gusting 2 7.8
2019-Nov-15 07:07 266 1 gusting 1 7.8
2019-Nov-15 06:52 345 7.8
2019-Nov-15 06:37 327 7.8
2019-Nov-15 06:22 360 7.8
2019-Nov-15 06:07 019 7.8
2019-Nov-15 05:52 327 7.8
2019-Nov-15 05:37 347 7.8
2019-Nov-15 05:22 014 7.8
2019-Nov-15 05:07 283 7.8
2019-Nov-15 04:52 030 8.3
2019-Nov-15 04:37 308 8.3
2019-Nov-15 04:22 005 7.8
2019-Nov-15 04:07 016 7.8
2019-Nov-15 03:52 360 7.8
2019-Nov-15 03:37 089 7.8
2019-Nov-15 03:22 355 7.8
2019-Nov-15 03:07 327 8.3
2019-Nov-15 02:52 287 3 gusting 3 8.3
2019-Nov-15 02:37 018 8.3
2019-Nov-15 02:22 005 8.9
2019-Nov-15 02:07 016 8.9
2019-Nov-15 01:52 338 8.9
2019-Nov-15 01:37 018 8.9
2019-Nov-15 01:22 015 8.9
2019-Nov-15 01:07 347 8.9
2019-Nov-15 00:52 028 8.9
2019-Nov-15 00:37 048 9.4
2019-Nov-15 00:22 011 9.4
2019-Nov-15 00:07 032 9.4
2019-Nov-14 23:52 028 9.4
2019-Nov-14 23:37 005 9.4
2019-Nov-14 23:22 012 10.0
2019-Nov-14 23:07 329 10.0
2019-Nov-14 22:52 339 10.0
2019-Nov-14 22:37 347 10.6
2019-Nov-14 22:22 014 10.6
2019-Nov-14 22:07 005 10.6
2019-Nov-14 21:52 011 10.6
2019-Nov-14 21:37 351 10.6
2019-Nov-14 21:22 011 10.6
2019-Nov-14 21:07 029 10.6
2019-Nov-14 20:52 013 10.6
2019-Nov-14 20:37 014 11.1
2019-Nov-14 20:22 355 11.1
2019-Nov-14 20:07 342 11.1
2019-Nov-14 19:52 302 11.7
2019-Nov-14 19:37 013 11.7
2019-Nov-14 19:22 316 11.7
2019-Nov-14 19:07 304 11.7
2019-Nov-14 18:52 355 11.1
2019-Nov-14 18:37 360 0 gusting 0 11.1
2019-Nov-14 18:22 342 11.1
2019-Nov-14 18:07 030 11.1
2019-Nov-14 17:52 302 11.1
2019-Nov-14 17:37 026 11.1
2019-Nov-14 17:22 040 11.1
2019-Nov-14 17:07 348 11.1
2019-Nov-14 16:52 015 10.6
2019-Nov-14 16:37 015 10.6
2019-Nov-14 16:22 060 10.6
2019-Nov-14 16:07 026 10.0
2019-Nov-14 15:52 360 10.0
2019-Nov-14 15:37 360 10.0
2019-Nov-14 15:22 042 1 gusting 1 9.4
2019-Nov-14 15:07 021 0 gusting 1 9.4
2019-Nov-14 14:52 047 9.4
2019-Nov-14 14:37 059 9.4
2019-Nov-14 14:22 051 9.4
2019-Nov-14 14:07 062 8.9
2019-Nov-14 13:52 057 8.9
2019-Nov-14 13:37 036 8.3
2019-Nov-14 13:22 024 7.8
2019-Nov-14 13:07 013 7.2
2019-Nov-14 12:52 051 7.2
2019-Nov-14 12:45 009 7.2
2019-Nov-14 12:37 009 7.2
2019-Nov-14 12:22 078 6.7
2019-Nov-14 12:07 049 6.7
2019-Nov-14 11:52 049 7.2
2019-Nov-14 11:45 049 7.2
2019-Nov-14 11:37 049 7.2
2019-Nov-14 11:22 049 7.2
2019-Nov-14 11:07 053 7.8
2019-Nov-14 10:52 083 7.8
2019-Nov-14 10:37 042 7.8
2019-Nov-14 10:22 010 7.8
2019-Nov-14 10:07 016 7.8
2019-Nov-14 09:52 064 8.3
2019-Nov-14 09:37 035 8.3
2019-Nov-14 09:22 054 8.3
2019-Nov-14 09:07 055 8.3
2019-Nov-14 08:52 030 8.3
2019-Nov-14 08:37 033 0 gusting 4 8.3
2019-Nov-14 08:22 011 8.3
2019-Nov-14 08:07 052 8.3
2019-Nov-14 07:52 038 8.3
2019-Nov-14 07:37 021 8.3
2019-Nov-14 07:22 033 8.3
2019-Nov-14 07:07 064 8.3
2019-Nov-14 06:52 013 8.3
2019-Nov-14 06:37 355 8.9
2019-Nov-14 06:22 013 8.9
2019-Nov-14 06:07 080 8.9
2019-Nov-14 05:52 053 8.9
2019-Nov-14 05:37 005 8.9
2019-Nov-14 05:22 009 8.9
2019-Nov-14 05:07 360 8.3
2019-Nov-14 04:52 049 8.3
2019-Nov-14 04:37 038 0 gusting 1 7.8
2019-Nov-14 04:22 355 7.2
2019-Nov-14 04:07 034 6.7
2019-Nov-14 03:52 060 6.7
2019-Nov-14 03:37 060 6.7
2019-Nov-14 03:22 060 6.1
2019-Nov-14 03:07 060 6.1
2019-Nov-14 02:52 060 6.1
2019-Nov-14 02:37 060 5.6
2019-Nov-14 02:22 060 5.6
2019-Nov-14 02:07 060 5.6
2019-Nov-14 01:52 060 5.0
2019-Nov-14 01:37 060 5.6
2019-Nov-14 01:22 060 5.6
2019-Nov-14 01:07 060 5.6
2019-Nov-14 00:52 060 5.6
2019-Nov-14 00:37 060 6.1
2019-Nov-14 00:22 060 6.1
2019-Nov-14 00:07 060 6.7
2019-Nov-13 23:52 060 7.2
2019-Nov-13 23:37 060 7.8
2019-Nov-13 23:22 060 8.3
2019-Nov-13 23:07 060 9.4
2019-Nov-13 22:52 060 10.6
2019-Nov-13 22:37 060 11.7
2019-Nov-13 22:22 060 12.8
2019-Nov-13 22:07 071 13.3
2019-Nov-13 21:52 071 13.3
2019-Nov-13 21:37 071 0 gusting 4 12.8
2019-Nov-13 21:22 057 1 gusting 1 13.3
2019-Nov-13 21:07 179 13.3
2019-Nov-13 20:52 086 13.9
2019-Nov-13 20:37 148 13.9
2019-Nov-13 20:22 026 13.9
2019-Nov-13 20:07 064 0 gusting 7 13.3